Wrangell, AK

11:43 PM AKST on December 16, 2017 (GMT -0900)
Wrangell

Weather History for PAWG - January, 2013

Change the Weather History Date:

Saturday, January 26, 2013

  Actual Average Record
Temperature  
Mean Temperature 38 °F -  
Max Temperature 41 °F 35 °F 48 °F (2016)
Min Temperature 35 °F 25 °F -2 °F (1972)
Degree Days  
Heating Degree Days 27    
Moisture  
Dew Point 32 °F    
Average Humidity 78    
Maximum Humidity 87    
Minimum Humidity 65    
Precipitation  
Precipitation 0.18 in - - ()
Sea Level Pressure  
Sea Level Pressure 29.68 in    
Wind  
Wind Speed 6 mph (South)    
Max Wind Speed 17 mph    
Max Gust Speed 22 mph    
Visibility 10 miles    
Events      
Averages and records for this station are not official NWS values.
T = Trace of Precipitation, MM = Missing Value Source: NWS Daily Summary

Daily Weather History Graph

Daily Weather History Graph

Search for Another Location

Airport or City:

Trip Planner

Search our weather history database for the weather conditions in past years. The results will help you decide how hot, cold, wet, or windy it might be!

Date:

Astronomy

Jan. 26, 2013 Rise Set
Actual Time 7:56 AM AKST 4:08 PM AKST
Civil Twilight 7:13 AM AKST 4:51 PM AKST
Nautical Twilight 6:27 AM AKST 5:37 PM AKST
Astronomical Twilight 5:43 AM AKST 6:22 PM AKST
Moon 4:21 PM AKST (1/26) 7:10 AM AKST (1/26)
Length of Visible Light 9h 37m
Length of Day
8h 11m
Full, 100% of the Moon is Illuminated
Jan 26
Full
Jan 26
Full
Feb 3
Last Quarter
Feb 9
New
Feb 17
First Quarter

Hourly Weather History & Observations

Time (AKST) Temp. Windchill Dew Point Humidity Pressure Visibility Wind Dir Wind Speed Gust Speed Precip Events Conditions
12:16 AM 39.2 °F 37.0 °F 33.8 °F 81% 29.66 in 10.0 mi SSW 3.5 mph - N/A   Overcast
12:36 AM 39.2 °F 32.5 °F 32.0 °F 75% 29.66 in 10.0 mi SE 10.4 mph - N/A   Overcast
12:56 AM 39.2 °F 33.6 °F 32.0 °F 75% 29.66 in 10.0 mi SSE 8.1 mph - 0.01 in   Overcast
1:16 AM 37.4 °F - 32.0 °F 81% 29.66 in 10.0 mi Calm Calm - N/A   Overcast
1:36 AM 39.2 °F - 32.0 °F 75% 29.66 in 10.0 mi Calm Calm - N/A   Overcast
1:56 AM 39.2 °F 35.0 °F 32.0 °F 75% 29.66 in 10.0 mi WSW 5.8 mph - N/A   Overcast
2:16 AM 41.0 °F 35.2 °F 30.2 °F 65% 29.66 in 10.0 mi SE 9.2 mph - N/A   Overcast
2:36 AM 41.0 °F 33.9 °F 32.0 °F 70% 29.66 in 10.0 mi SE 12.7 mph 17.3 mph N/A   Overcast
2:56 AM 41.0 °F 33.5 °F 32.0 °F 70% 29.65 in 10.0 mi SE 13.8 mph 19.6 mph N/A   Overcast
3:16 AM 41.0 °F 32.5 °F 30.2 °F 65% 29.65 in 10.0 mi SE 17.3 mph 21.9 mph N/A   Overcast
3:36 AM 39.2 °F 32.5 °F 32.0 °F 75% 29.66 in 10.0 mi SSE 10.4 mph - N/A   Overcast
3:56 AM 39.2 °F 37.0 °F 32.0 °F 75% 29.66 in 10.0 mi South 3.5 mph - N/A   Overcast
4:16 AM 39.2 °F - 32.0 °F 75% 29.66 in 10.0 mi Calm Calm - N/A   Overcast
4:36 AM 39.2 °F 35.0 °F 32.0 °F 75% 29.66 in 6.0 mi SSE 5.8 mph - N/A   Overcast
4:56 AM 39.2 °F 32.5 °F 33.8 °F 81% 29.66 in 10.0 mi SE 10.4 mph 16.1 mph N/A   Overcast
5:16 AM 39.2 °F 35.9 °F 32.0 °F 75% 29.66 in 10.0 mi SSE 4.6 mph - N/A   Overcast
5:36 AM 39.2 °F - 33.8 °F 81% 29.66 in 9.0 mi Calm Calm - N/A   Overcast
5:56 AM 39.2 °F 35.0 °F 33.8 °F 81% 29.67 in 10.0 mi NW 5.8 mph - N/A   Overcast
6:16 AM 39.2 °F 37.0 °F 33.8 °F 81% 29.67 in 10.0 mi West 3.5 mph - 0.01 in   Overcast
6:36 AM 39.2 °F - 33.8 °F 81% 29.66 in 10.0 mi Calm Calm - 0.01 in   Overcast
6:56 AM 39.2 °F - 33.8 °F 81% 29.66 in 10.0 mi Calm Calm - 0.02 in   Overcast
7:16 AM 39.2 °F 37.0 °F 33.8 °F 81% 29.66 in 10.0 mi WNW 3.5 mph - N/A   Overcast
7:36 AM 37.4 °F 34.9 °F 33.8 °F 87% 29.66 in 10.0 mi WSW 3.5 mph - 0.01 in   Overcast
7:56 AM 39.2 °F 35.0 °F 33.8 °F 81% 29.67 in 7.0 mi WSW 5.8 mph - 0.02 in   Overcast
8:16 AM 37.4 °F 34.9 °F 33.8 °F 87% 29.68 in 7.0 mi SSW 3.5 mph - N/A   Overcast
8:36 AM 37.4 °F 34.9 °F 33.8 °F 87% 29.68 in 7.0 mi South 3.5 mph - N/A   Overcast
8:56 AM 37.4 °F 34.9 °F 33.8 °F 87% 29.69 in 7.0 mi South 3.5 mph - 0.01 in   Overcast
9:16 AM 37.4 °F 34.9 °F 33.8 °F 87% 29.70 in 7.0 mi South 3.5 mph - 0.01 in   Overcast
9:36 AM 39.2 °F 33.6 °F 32.0 °F 75% 29.70 in 7.0 mi South 8.1 mph - 0.01 in   Overcast
9:56 AM 39.2 °F 34.2 °F 33.8 °F 81% 29.70 in 10.0 mi SE 6.9 mph - 0.01 in   Overcast
10:16 AM 39.2 °F 32.0 °F 33.8 °F 81% 29.70 in 10.0 mi East 11.5 mph 16.1 mph N/A   Overcast
10:36 AM 39.2 °F 33.0 °F 33.8 °F 81% 29.70 in 10.0 mi East 9.2 mph - N/A   Overcast
10:56 AM 39.2 °F 37.0 °F 33.8 °F 81% 29.71 in 10.0 mi South 3.5 mph - N/A   Overcast
11:16 AM 39.2 °F 35.9 °F 32.0 °F 75% 29.71 in 10.0 mi SSW 4.6 mph - 0.01 in   Overcast
11:36 AM 39.2 °F - 33.8 °F 81% 29.71 in 10.0 mi Calm Calm - 0.01 in   Overcast
11:56 AM 39.2 °F 34.2 °F 33.8 °F 81% 29.70 in 10.0 mi East 6.9 mph - 0.02 in   Overcast
12:16 PM 39.2 °F 37.0 °F 33.8 °F 81% 29.70 in 10.0 mi South 3.5 mph - N/A   Overcast
12:36 PM 39.2 °F - 33.8 °F 81% 29.70 in 10.0 mi Calm Calm - 0.01 in   Overcast
12:56 PM 39.2 °F 37.0 °F 33.8 °F 81% 29.70 in 10.0 mi North 3.5 mph - 0.01 in   Overcast
1:16 PM 39.2 °F 35.9 °F 33.8 °F 81% 29.69 in 7.0 mi West 4.6 mph - N/A   Overcast
1:36 PM 37.4 °F - 33.8 °F 87% 29.69 in 7.0 mi Calm Calm - 0.01 in   Overcast
1:56 PM 37.4 °F - 33.8 °F 87% 29.69 in 7.0 mi Calm Calm - 0.01 in   Overcast
2:16 PM 39.2 °F 35.0 °F 33.8 °F 81% 29.69 in 7.0 mi SSW 5.8 mph - 0.02 in   Overcast
2:36 PM 37.4 °F 30.3 °F 33.8 °F 87% 29.69 in 7.0 mi SSW 10.4 mph - 0.04 in   Overcast
2:56 PM 37.4 °F 32.1 °F 32.0 °F 81% 29.69 in 10.0 mi SSW 6.9 mph - 0.05 in   Overcast
3:16 PM 37.4 °F 33.8 °F 32.0 °F 81% 29.69 in 10.0 mi South 4.6 mph - 0.01 in   Overcast
3:36 PM 37.4 °F 33.8 °F 32.0 °F 81% 29.69 in 10.0 mi SSE 4.6 mph - 0.01 in   Overcast
3:56 PM 37.4 °F 33.8 °F 30.2 °F 75% 29.69 in 10.0 mi SSE 4.6 mph - 0.02 in   Overcast
4:16 PM 37.4 °F 32.8 °F 30.2 °F 75% 29.69 in 10.0 mi South 5.8 mph - N/A   Overcast
4:36 PM 37.4 °F 34.9 °F 32.0 °F 81% 29.69 in 10.0 mi ESE 3.5 mph - N/A   Overcast
4:56 PM 37.4 °F 34.9 °F 33.8 °F 87% 29.69 in 10.0 mi South 3.5 mph - N/A   Overcast
5:16 PM 37.4 °F 33.8 °F 30.2 °F 75% 29.69 in 10.0 mi South 4.6 mph - N/A   Overcast
5:36 PM 37.4 °F 31.4 °F 30.2 °F 75% 29.70 in 10.0 mi South 8.1 mph - N/A   Overcast
5:56 PM 37.4 °F 33.8 °F 30.2 °F 75% 29.70 in 10.0 mi South 4.6 mph - N/A   Overcast
6:16 PM 37.4 °F 32.1 °F 30.2 °F 75% 29.69 in 10.0 mi South 6.9 mph - N/A   Overcast
6:36 PM 37.4 °F 32.1 °F 30.2 °F 75% 29.69 in 10.0 mi South 6.9 mph - N/A   Overcast
6:56 PM 37.4 °F 30.8 °F 30.2 °F 75% 29.69 in 10.0 mi South 9.2 mph - N/A   Overcast
7:16 PM 37.4 °F 29.3 °F 28.4 °F 70% 29.69 in 10.0 mi South 12.7 mph 17.3 mph N/A   Overcast
7:36 PM 37.4 °F 32.8 °F 28.4 °F 70% 29.69 in 10.0 mi South 5.8 mph - N/A   Overcast
7:56 PM 37.4 °F 32.1 °F 30.2 °F 75% 29.70 in 10.0 mi SSE 6.9 mph - N/A   Overcast
8:16 PM 37.4 °F 30.3 °F 28.4 °F 70% 29.69 in 10.0 mi South 10.4 mph - N/A   Overcast
8:36 PM 37.4 °F 30.3 °F 28.4 °F 70% 29.69 in 10.0 mi South 10.4 mph - N/A   Overcast
8:56 PM 37.4 °F 32.1 °F 30.2 °F 75% 29.70 in 10.0 mi South 6.9 mph - N/A   Overcast
9:16 PM 37.4 °F 31.4 °F 28.4 °F 70% 29.70 in 10.0 mi SSW 8.1 mph 17.3 mph N/A   Overcast
9:36 PM 37.4 °F 32.1 °F 28.4 °F 70% 29.70 in 10.0 mi South 6.9 mph - N/A   Overcast
9:56 PM 35.6 °F 31.7 °F 30.2 °F 81% 29.70 in 10.0 mi SSW 4.6 mph - N/A   Overcast
10:16 PM 35.6 °F 29.9 °F 28.4 °F 75% 29.70 in 10.0 mi SSW 6.9 mph - N/A   Overcast
10:36 PM 35.6 °F 28.0 °F 28.4 °F 75% 29.70 in 10.0 mi SSW 10.4 mph 16.1 mph N/A   Overcast
10:56 PM 35.6 °F 28.6 °F 28.4 °F 75% 29.70 in 10.0 mi SSW 9.2 mph - N/A   Overcast
11:16 PM 35.6 °F 28.6 °F 28.4 °F 75% 29.70 in 10.0 mi South 9.2 mph - N/A   Overcast
11:36 PM 35.6 °F 28.6 °F 28.4 °F 75% 29.70 in 10.0 mi South 9.2 mph - N/A   Overcast
11:56 PM 35.6 °F 29.2 °F 28.4 °F 75% 29.70 in 10.0 mi South 8.1 mph - N/A   Mostly Cloudy